Flag Weather past 2 weeks in El Aaiún, Western Sahara

Now
66 °F

Passing clouds.


Feels Like: 66 °F
Forecast: N/A
Wind: 6 mph from Northwest

Location: Laayoune/Hassan Isl

Current Time: Nov 27, 2014 at 8:13:17 PM

Latest Report: Nov 27, 2014 at 7:00 PM


Visibility: 5 mi

Pressure: 29.86 "Hg

Humidity: 73%

Dew point: 57 °F

Location of El AaiúnLocation

Historic Weather in El Aaiún — Graph

°F

El Aaiún temperature yesterday

Maximum temperature yesterday: 72 °F (at 12:00 PM)
Minimum temperature yesterday: 61 °F (at 5:00 AM)
Average temperature yesterday: 66 °F

Past Weeks' High & Low Weather Summary

 TemperatureHumidityPressure
High81 °F (Nov 14, 2:00 PM)100% (Nov 17, 5:00 AM)30.18 "Hg (Nov 17, 5:00 AM)
Low45 °F (Nov 17, 5:00 AM)39% (Nov 14, 2:00 PM)29.62 "Hg (Nov 21, 2:00 PM)
Average66 °F78%29.95 "Hg
* Reported Nov 12 7:00 PM — Nov 27 7:00 PM, El Aaiún, Weather by CustomWeather, © 2014

Note: Actual official high and low records may vary slightly from our data, if they occured in-between our weather recording intervals... More about our weather records

Advertising

El Aaiún weather history for previous 24 hours

 ConditionsComfort  
Time TempWeatherWind HumidityBarometerVisibility
7:00 PM
Nov 27
66 °FPassing clouds.6 mph73%29.86 "Hg5 mi
6:00 PM66 °FScattered clouds.9 mph73%29.86 "Hg5 mi
5:00 PM68 °FScattered clouds.18 mph69%29.86 "HgN/A
4:00 PM70 °FScattered clouds.20 mph64%29.86 "HgN/A
3:00 PM68 °FScattered clouds.15 mph69%29.89 "HgN/A
2:00 PM68 °FScattered clouds.16 mph69%29.89 "HgN/A
1:00 PM70 °FScattered clouds.16 mph64%29.92 "HgN/A
12:00 PM68 °FScattered clouds.16 mph73%29.95 "HgN/A
10:00 AM68 °FPartly sunny.14 mph73%29.98 "HgN/A
9:00 AM66 °FScattered clouds.14 mph78%29.98 "HgN/A
8:00 AM64 °FPassing clouds.7 mph83%29.95 "HgN/A
7:00 AM63 °FPassing clouds.5 mph94%29.95 "HgN/A
6:00 AM63 °FLight rain. Partly cloudy.8 mph94%29.95 "Hg3 mi
5:00 AM63 °FPassing clouds.12 mph88%29.98 "HgN/A
4:00 AM64 °FPassing clouds.N/A78%29.98 "HgN/A
3:00 AM63 °FPassing clouds.7 mph94%29.98 "HgN/A
2:00 AM63 °FPassing clouds.6 mph94%29.98 "HgN/A
1:00 AM61 °FRain. Partly cloudy.21 mph100%30.01 "Hg2 mi
12:10 AM64 °FPartly cloudy.6 mph88%30.01 "Hg5 mi
11:00 PM
Nov 26
63 °FPassing clouds.6 mph88%30.01 "HgN/A
10:00 PM64 °FPartly cloudy.7 mph83%30.04 "HgN/A
9:00 PM66 °FPassing clouds.3 mph83%30.04 "HgN/A
8:00 PM66 °FPassing clouds.2 mph83%30.04 "Hg5 mi
Weather by CustomWeather, © 2014

See weather overviewHow to use our weather pages